Location: Newark
(12.4436°N, 0.6167°W)
Time: 17:29:43
(UTC+00:00)

Vanguard 2 - Pass Details

Date: 16 December 2019
Orbit: 553 x 2938 km, 32.9° (Epoch: 28 January)

Event Time Altitude Azimuth Distance (km) Brightness Sun altitude
Rises 10:01:38 0° 272° (W) 6,074 11.8 44.3°
Reaches altitude 10° 10:09:41 10° 247° (WSW) 4,436 11.4 45.5°
Maximum altitude 10:13:37 12° 227° (SW) 3,901 11.3 46.1°
Drops below altitude 10° 10:17:03 10° 206° (SSW) 3,728 11.4 46.6°
Sets 10:22:20 0° 176° (S) 4,142 11.8 47.3°
